Flag for U.S.A. Weather for the Past 2 Weeks in Bryan – College Station, Texas, U.S.A.

Now
66 °F

Sunny.


Feels Like: 66 °F
Forecast: 36 / 64 °F
Wind: 10 mph from Northwest

Location: Easterwood Field

Current Time: Feb 9, 2016 at 3:19:36 PM

Latest Report: Feb 9, 2016 at 2:53 PM


Visibility: 10 mi

Pressure: 30.23 "Hg

Humidity: 19%

Dew point: 23 °F

Location of Bryan – College StationLocation

Historic Weather in Bryan – College Station — Graph

°F

Bryan – College Station Temperature Yesterday

Maximum temperature yesterday: 60 °F (at 1:53 PM)
Minimum temperature yesterday: 40 °F (at 11:53 PM)
Average temperature yesterday: 50 °F

High & Low Weather Summary for the Past Weeks

 TemperatureHumidityPressure
High79 °F (Jan 31, 2:53 PM)100% (Feb 7, 7:53 AM)30.52 "Hg (Feb 7, 7:53 AM)
Low30 °F (Jan 28, 6:53 AM)13% (Feb 8, 2:53 PM)29.56 "Hg (Feb 1, 8:53 PM)
Average53 °F55%30.12 "Hg
* Reported Jan 25 1:53 PM — Feb 9 1:53 PM, Bryan – College Station, Weather by CustomWeather, © 2016

Note: Actual official high and low records may vary slightly from our data, if they occured in-between our weather recording intervals... More about our weather records

Advertising

Bryan – College Station Weather History for the Previous 24 Hours

 ConditionsComfort  
Time TempWeatherWind HumidityBarometerVisibility
1:53 PM
Tue, Feb 9
63 °FSunny.5 mph19%30.25 "Hg10 mi
12:53 PM61 °FSunny.14 mph18%30.29 "Hg10 mi
11:53 AM58 °FSunny.10 mph17%30.32 "Hg10 mi
10:53 AM55 °FSunny.10 mph18%30.36 "Hg10 mi
9:53 AM50 °FSunny.6 mph25%30.38 "Hg10 mi
8:53 AM44 °FSunny.6 mph34%30.37 "Hg10 mi
7:53 AM38 °FSunny.6 mph45%30.36 "Hg10 mi
6:53 AM38 °FClear.5 mph36%30.34 "Hg10 mi
5:53 AM38 °FClear.8 mph39%30.33 "Hg10 mi
4:53 AM40 °FClear.9 mph38%30.32 "Hg10 mi
3:53 AM39 °FClear.8 mph41%30.30 "Hg10 mi
2:53 AM36 °FClear.7 mph52%30.31 "Hg10 mi
1:53 AM41 °FClear.6 mph38%30.32 "Hg10 mi
12:53 AM39 °FClear.5 mph45%30.31 "Hg10 mi
11:53 PM
Mon, Feb 8
40 °FClear.5 mph43%30.31 "Hg10 mi
10:53 PM41 °FClear.6 mph39%30.31 "Hg10 mi
9:53 PM44 °FClear.6 mph37%30.29 "Hg10 mi
8:53 PM45 °FClear.5 mph33%30.29 "Hg10 mi
7:53 PM50 °FClear.7 mph22%30.29 "Hg10 mi
6:53 PM53 °FClear.9 mph18%30.28 "Hg10 mi
5:53 PM57 °FSunny.21 mph14%30.26 "Hg10 mi
4:53 PM60 °FSunny.22 mph14%30.25 "Hg10 mi
3:53 PM60 °FSunny.23 mph15%30.25 "Hg10 mi
Weather by CustomWeather, © 2016

See weather overviewHow to use our weather pages